Regional Weather Roundup
Issued by NWS

Home | Current Version | Previous Version | Graphics & Text | Print | Product List | Glossary Off
Versions: 1 2 3 4 5 6 7 8 9 10 11 12 13 14 15 16 17 18 19 20 21 22 23 24 25 26 27 28 29 30 31 32 33 34 35 36 37 38 39 40 41 42 43 44 45 46 47 48 49 50

000
ASUS43 KTOP 192059
RWRKS

WEATHER ROUNDUP FOR KANSAS
NATIONAL WEATHER SERVICE GOODLAND KS
400 PM CDT FRI SEP 19 2014

NOTE:  "FAIR" INDICATES FEW OR NO CLOUDS BELOW 12,000 FEET WITH NO
SIGNIFICANT WEATHER AND/OR OBSTRUCTIONS TO VISIBILITY.

KSZ001>006-013>018-027>032-041>047-192200-
NORTHWEST KANSAS

CITY           SKY/WX    TMP DP  RH WIND       PRES   REMARKS
GOODLAND       MOSUNNY   88  56  33 S16G26    29.90F
HAYS           SUNNY     90  61  37 S20G26    29.89S
HILL CITY      SUNNY     91  60  35 S21G26    29.86F
RUSSELL        SUNNY     88  62  41 S20G28    29.88F
$$

KSZ061>065-074>080-084>089-192200-
SOUTHWEST KANSAS

CITY           SKY/WX    TMP DP  RH WIND       PRES   REMARKS
DODGE CITY     SUNNY     87  59  38 S18G35    29.93F
ELKHART          N/A     83  61  47 S16         N/A
GARDEN CITY    SUNNY     87  57  35 S25G33    29.91F
GREAT BEND     MOSUNNY   91  61  35 S21       29.89F
LIBERAL        MOSUNNY   88  57  35 S20G26    29.95F
PRATT          SUNNY     88  57  35 S20G25    29.94F
$$

KSZ066>073-081>083-090>101-192200-
SOUTHEAST KANSAS

CITY           SKY/WX    TMP DP  RH WIND       PRES   REMARKS
CHANUTE        CLOUDY    76  70  82 S10       29.99F
COFFEYVILLE    CLOUDY    75  69  81 S8        29.98F
HUTCHINSON     SUNNY     90  62  39 S20       29.91F
NEWTON         MOSUNNY   88  63  42 S15       29.95F
PARSONS        CLOUDY    75  69  81 S7        30.00F
WICHITA INTL   MOSUNNY   91  63  39 S20G25    29.92F
WICHITA JABRA  MOSUNNY   87  65  47 S17       29.93F
WINFIELD       MOSUNNY   86  68  54 S16       29.96F
$$

KSZ007>012-019>026-033>040-048>060-102>105-192200-
NORTHEAST KANSAS

CITY           SKY/WX    TMP DP  RH WIND       PRES   REMARKS
CONCORDIA      SUNNY     88  67  49 S15       29.88F
EMPORIA        SUNNY     78  69  73 SE16      29.96F
LAWRENCE       MOSUNNY   79  68  69 S10       29.95F
MANHATTAN      MOSUNNY   89  69  51 S16       29.90F
OLATHE IND     PTSUNNY   79  69  71 SE10      29.97F
OLATHE EXE     PTSUNNY   78  69  73 S9        29.96F
SALINA         MOSUNNY   89  67  47 S10G21    29.90S
TOPEKA BILLARD SUNNY     81  70  69 S13       29.94F
TOPEKA FORBES  SUNNY     80  68  66 S13       29.95F
$$



USA.gov is the U.S. government's official web portal to all federal, state and local government web resources and services.